Regional Weather Roundup
Issued by NWS

Home | Current Version | Previous Version | Graphics & Text | Print | Product List | Glossary On
Versions: 1 2 3 4 5 6 7 8 9 10 11 12 13 14 15 16 17 18 19 20 21 22 23 24 25 26 27
000
ASUS45 KCYS 220910
RWRWY

WYOMING REGIONAL WEATHER ROUNDUP
NATIONAL WEATHER SERVICE CHEYENNE WY
200 AM MST SUN JAN 22 2017

NOTE:  "FAIR" INDICATES FEW OR NO CLOUDS BELOW 12,000 FEET
WITH NO SIGNIFICANT WEATHER AND/OR OBSTRUCTIONS TO VISIBILITY.

WYZ001-221000-
YELLOWSTONE NATIONAL PARK

CITY           SKY/WX    TMP DP  RH WIND       PRES   REMARKS
LK YELLOWSTONE   N/A     17  13  84 VRB6      29.81R WCI   9
W YELLOWSTONE  NOT AVBL

$$
WYZ002>013-054>058-071-098>099-221000-
NORTHERN WYOMING

CITY           SKY/WX    TMP DP  RH WIND       PRES   REMARKS
JACKSON        CLOUDY    23  21  93 CALM      29.84R
CODY           FAIR      30  17  58 NW9       29.76R WCI  22
GREYBULL       CLOUDY    16  12  84 CALM      29.80R
WORLAND        CLOUDY    17  15  92 S5        29.79R WCI  10
SHERIDAN       FAIR      26  17  68 SW7       29.73R WCI  18
BUFFALO        CLOUDY    32  17  54 NW7       29.73R WCI  26
GILLETTE       CLOUDY    26  22  84 NE3       29.72R
HULETT         FAIR      21  19  93 S9        29.72R WCI  11
NEWCASTLE      FAIR      21  19  93 N8        29.74R WCI  12

$$
WYZ014>020-022>026-101>103-221000-
CENTRAL WYOMING

CITY           SKY/WX    TMP DP  RH WIND       PRES   REMARKS
BIG PINEY      MOCLDY     3   0  87 NW6       29.87R WCI  -8
PINEDALE       FAIR       3   0  85 CALM      29.87R FOG
DUBOIS         NOT AVBL
LANDER         FAIR      20  13  74 CALM      29.77R
RIVERTON       FAIR     N/A N/A N/A SW6       29.79R
CASPER         MOCLDY    25  17  72 SW16      29.76R WCI  12
DOUGLAS        FAIR      26  18  71 NW13      29.75R WCI  15

$$
WYZ021-027>030-104>119-221000-
SOUTHERN WYOMING

CITY           SKY/WX    TMP DP  RH WIND       PRES   REMARKS
EVANSTON       MOCLDY    18  13  80 SW10      29.91R WCI   6
ROCK SPRINGS   FAIR      19  15  84 W20       29.88R WCI   3
RAWLINS        MOCLDY    19  14  81 SW18      29.82R WCI   4
LARAMIE        CLOUDY    16  12  84 E7        29.75R WCI   6
CHEYENNE       CLOUDY    29  17  61 NW10      29.73R WCI  20
TORRINGTON     FAIR      27  20  75 NW8       29.73R WCI  19

$$




USA.gov is the U.S. government's official web portal to all federal, state and local government web resources and services.